Time,TemperatureF,DewpointF,PressureIn,WindDirection,WindDirectionDegrees,WindSpeedMPH,WindSpeedGustMPH,Humidity,HourlyPrecipIn,Conditions,Clouds,dailyrainin,SoftwareType,DateUTC
2013-01-09 00:00:00,39.2,26.9,30.30,WNW,292,0.0,0.0,61,0.00,,CLR,0.00,VWS V14.01,2013-01-09 05:00:00,
2013-01-09 00:02:00,39.4,27.1,30.30,WNW,292,0.0,0.0,61,0.00,,CLR,0.00,VWS V14.01,2013-01-09 05:02:00,
2013-01-09 00:03:00,39.4,27.1,30.30,WNW,292,0.0,0.0,61,0.00,,CLR,0.00,VWS V14.01,2013-01-09 05:03:00,
2013-01-09 00:08:00,39.4,27.5,30.30,WNW,292,0.0,0.0,62,0.00,,CLR,0.00,VWS V14.01,2013-01-09 05:08:00,
2013-01-09 00:13:00,39.4,27.5,30.27,WNW,292,0.0,0.0,62,0.00,,CLR,0.00,VWS V14.01,2013-01-09 05:13:00,
2013-01-09 00:18:00,39.6,27.6,30.27,WNW,292,0.0,0.0,62,0.00,,CLR,0.00,VWS V14.01,2013-01-09 05:18:00,
2013-01-09 00:23:00,39.6,27.6,30.27,WNW,292,0.0,0.0,62,0.00,,CLR,0.00,VWS V14.01,2013-01-09 05:23:00,
2013-01-09 00:28:00,39.7,27.8,30.30,WNW,292,0.0,0.0,62,0.00,,CLR,0.00,VWS V14.01,2013-01-09 05:28:00,
2013-01-09 00:33:00,39.7,27.8,30.30,WNW,292,0.0,0.0,62,0.00,,CLR,0.00,VWS V14.01,2013-01-09 05:33:00,
2013-01-09 00:38:00,39.7,27.8,30.30,WNW,292,0.0,0.0,62,0.00,,CLR,0.00,VWS V14.01,2013-01-09 05:38:00,
2013-01-09 00:43:00,39.7,27.8,30.30,WNW,292,0.0,0.0,62,0.00,,CLR,0.00,VWS V14.01,2013-01-09 05:43:00,
2013-01-09 00:48:00,39.9,28.0,30.30,WNW,292,0.0,0.0,62,0.00,,CLR,0.00,VWS V14.01,2013-01-09 05:48:00,
2013-01-09 00:53:00,39.9,28.4,30.30,WNW,292,0.0,0.0,63,0.00,,CLR,0.00,VWS V14.01,2013-01-09 05:53:00,
2013-01-09 00:58:00,40.1,28.5,30.27,WNW,292,0.0,0.0,63,0.00,,CLR,0.00,VWS V14.01,2013-01-09 05:58:00,
2013-01-09 01:03:00,40.1,28.1,30.27,WNW,292,0.0,0.0,62,0.00,,CLR,0.00,VWS V14.01,2013-01-09 06:03:00,
2013-01-09 01:08:00,40.3,28.7,30.27,WNW,292,0.0,0.0,63,0.00,,CLR,0.00,VWS V14.01,2013-01-09 06:08:00,
2013-01-09 01:13:00,40.3,28.7,30.30,WNW,292,0.0,0.0,63,0.00,,CLR,0.00,VWS V14.01,2013-01-09 06:13:00,
2013-01-09 01:18:00,40.5,28.9,30.30,WNW,292,0.0,0.0,63,0.00,,OVC100,0.00,VWS V14.01,2013-01-09 06:18:00,
2013-01-09 01:23:00,40.5,28.9,30.30,WNW,292,0.0,0.0,63,0.00,,OVC100,0.00,VWS V14.01,2013-01-09 06:23:00,
2013-01-09 01:28:00,40.6,29.0,30.30,WNW,292,0.0,0.0,63,0.00,,OVC100,0.00,VWS V14.01,2013-01-09 06:28:00,
2013-01-09 01:33:00,40.6,29.0,30.30,WNW,292,0.0,0.0,63,0.00,,OVC100,0.00,VWS V14.01,2013-01-09 06:33:00,
2013-01-09 01:38:00,40.6,29.0,30.30,WNW,292,0.0,0.0,63,0.00,,OVC100,0.00,VWS V14.01,2013-01-09 06:38:00,
2013-01-09 01:43:00,40.8,29.2,30.30,WNW,292,0.0,0.0,63,0.00,,OVC100,0.00,VWS V14.01,2013-01-09 06:43:00,
2013-01-09 01:48:00,40.8,29.2,30.30,WNW,292,0.0,0.0,63,0.00,,OVC100,0.00,VWS V14.01,2013-01-09 06:48:00,
2013-01-09 01:53:00,40.8,29.2,30.30,WNW,292,0.0,0.0,63,0.00,,OVC100,0.00,VWS V14.01,2013-01-09 06:53:00,
2013-01-09 01:58:00,41.0,29.4,30.33,WNW,292,0.0,0.0,63,0.00,,OVC100,0.00,VWS V14.01,2013-01-09 06:58:00,
2013-01-09 02:03:00,41.0,29.0,30.33,WNW,292,0.0,0.0,62,0.00,,OVC100,0.00,VWS V14.01,2013-01-09 07:03:00,
2013-01-09 02:08:00,41.0,29.4,30.33,WNW,292,0.0,0.0,63,0.00,,OVC100,0.00,VWS V14.01,2013-01-09 07:08:00,
2013-01-09 02:13:00,41.2,29.6,30.33,WNW,292,0.0,0.0,63,0.00,,OVC100,0.00,VWS V14.01,2013-01-09 07:13:00,
2013-01-09 02:18:00,41.2,29.6,30.33,WSW,248,0.0,0.0,63,0.00,,OVC110,0.00,VWS V14.01,2013-01-09 07:18:00,
2013-01-09 02:23:00,41.2,29.2,30.33,WSW,248,0.0,0.0,62,0.00,,OVC110,0.00,VWS V14.01,2013-01-09 07:23:00,
2013-01-09 02:28:00,41.2,29.6,30.33,WSW,248,0.0,0.0,63,0.00,,OVC110,0.00,VWS V14.01,2013-01-09 07:28:00,
2013-01-09 02:33:00,41.4,29.7,30.33,WSW,248,0.0,0.0,63,0.00,,OVC110,0.00,VWS V14.01,2013-01-09 07:33:00,
2013-01-09 02:38:00,41.5,29.5,30.33,WSW,248,0.0,0.0,62,0.00,,OVC110,0.00,VWS V14.01,2013-01-09 07:38:00,
2013-01-09 02:43:00,41.5,29.9,30.33,WSW,248,0.0,0.0,63,0.00,,OVC110,0.00,VWS V14.01,2013-01-09 07:43:00,
2013-01-09 02:48:00,41.7,30.1,30.33,WSW,248,0.0,0.0,63,0.00,,OVC110,0.00,VWS V14.01,2013-01-09 07:48:00,
2013-01-09 02:53:00,41.7,30.1,30.33,WSW,248,0.0,0.0,63,0.00,,OVC110,0.00,VWS V14.01,2013-01-09 07:53:00,
2013-01-09 02:58:00,41.7,30.1,30.33,WSW,248,0.0,0.0,63,0.00,,OVC110,0.00,VWS V14.01,2013-01-09 07:58:00,
2013-01-09 03:03:00,41.9,30.2,30.33,WSW,248,0.0,0.0,63,0.00,,OVC110,0.00,VWS V14.01,2013-01-09 08:03:00,
2013-01-09 03:08:00,42.1,30.4,30.33,WNW,292,0.0,0.0,63,0.00,,OVC110,0.00,VWS V14.01,2013-01-09 08:08:00,
2013-01-09 03:13:00,42.1,30.4,30.33,WNW,292,0.0,0.0,63,0.00,,OVC110,0.00,VWS V14.01,2013-01-09 08:13:00,
2013-01-09 03:18:00,42.1,30.4,30.33,WNW,292,0.0,0.0,63,0.00,,OVC110,0.00,VWS V14.01,2013-01-09 08:18:00,
2013-01-09 03:23:00,42.3,30.6,30.33,ESE,112,0.0,0.0,63,0.00,,OVC110,0.00,VWS V14.01,2013-01-09 08:23:00,
2013-01-09 03:28:00,42.3,30.6,30.33,ESE,112,0.0,0.0,63,0.00,,OVC110,0.00,VWS V14.01,2013-01-09 08:28:00,
2013-01-09 03:33:00,42.4,30.8,30.33,ESE,112,0.0,0.0,63,0.00,,OVC110,0.00,VWS V14.01,2013-01-09 08:33:00,
2013-01-09 03:38:00,42.6,31.3,30.33,ESE,112,0.0,0.0,64,0.00,,OVC110,0.00,VWS V14.01,2013-01-09 08:38:00,
2013-01-09 03:43:00,42.8,31.1,30.33,NE,45,0.0,1.6,63,0.00,,OVC110,0.00,VWS V14.01,2013-01-09 08:43:00,
2013-01-09 03:48:00,42.8,31.1,30.33,NE,45,0.0,1.6,63,0.00,,OVC110,0.00,VWS V14.01,2013-01-09 08:48:00,
2013-01-09 03:53:00,43.0,31.3,30.33,ENE,68,0.0,1.6,63,0.00,,OVC110,0.00,VWS V14.01,2013-01-09 08:53:00,
2013-01-09 03:58:00,43.0,31.3,30.36,ESE,112,0.0,1.6,63,0.00,,OVC110,0.00,VWS V14.01,2013-01-09 08:58:00,
2013-01-09 04:03:00,43.3,31.6,30.36,ESE,112,0.0,0.0,63,0.00,,OVC110,0.00,VWS V14.01,2013-01-09 09:03:00,
2013-01-09 04:08:00,43.3,31.6,30.36,ESE,112,0.0,0.0,63,0.00,,OVC110,0.00,VWS V14.01,2013-01-09 09:08:00,
2013-01-09 04:13:00,43.5,32.2,30.33,SW,225,0.0,1.1,64,0.00,,OVC110,0.00,VWS V14.01,2013-01-09 09:13:00,
2013-01-09 04:18:00,43.5,32.2,30.33,WNW,292,0.0,1.1,64,0.00,,OVC080,0.00,VWS V14.01,2013-01-09 09:18:00,
2013-01-09 04:23:00,43.7,32.3,30.33,SSW,202,0.0,1.1,64,0.00,,OVC080,0.00,VWS V14.01,2013-01-09 09:23:00,
2013-01-09 04:28:00,43.7,32.7,30.33,SSW,202,2.0,2.0,65,0.00,,OVC080,0.00,VWS V14.01,2013-01-09 09:28:00,
2013-01-09 04:33:00,44.1,33.1,30.33,SSW,202,2.9,3.8,65,0.00,,OVC080,0.00,VWS V14.01,2013-01-09 09:33:00,
2013-01-09 04:38:00,44.6,34.0,30.33,SSW,202,3.4,4.0,66,0.00,,OVC080,0.00,VWS V14.01,2013-01-09 09:38:00,
2013-01-09 04:43:00,45.3,35.0,30.33,SSW,202,2.2,4.0,67,0.00,,OVC080,0.00,VWS V14.01,2013-01-09 09:43:00,
2013-01-09 04:48:00,46.0,35.7,30.33,SW,225,2.0,4.0,67,0.00,,OVC080,0.00,VWS V14.01,2013-01-09 09:48:00,
2013-01-09 04:53:00,46.6,36.2,30.33,SW,225,2.5,4.3,67,0.00,,OVC080,0.00,VWS V14.01,2013-01-09 09:53:00,
2013-01-09 04:58:00,47.1,36.7,30.33,SSW,202,1.3,4.3,67,0.00,,OVC080,0.00,VWS V14.01,2013-01-09 09:58:00,
2013-01-09 05:03:00,47.5,36.7,30.33,WSW,248,3.1,4.0,66,0.00,,OVC080,0.00,VWS V14.01,2013-01-09 10:03:00,
2013-01-09 05:08:00,47.8,36.7,30.33,WSW,248,2.9,6.5,65,0.00,,OVC080,0.00,VWS V14.01,2013-01-09 10:08:00,
2013-01-09 05:13:00,48.0,36.8,30.33,South,180,2.5,6.5,65,0.00,,OVC080,0.00,VWS V14.01,2013-01-09 10:13:00,
2013-01-09 05:18:00,48.2,36.6,30.33,WSW,248,2.2,6.5,64,0.00,,OVC080,0.00,VWS V14.01,2013-01-09 10:18:00,
2013-01-09 05:23:00,48.4,36.4,30.33,WNW,292,2.5,6.5,63,0.00,,OVC080,0.00,VWS V14.01,2013-01-09 10:23:00,
2013-01-09 05:27:00,48.6,36.5,30.33,WNW,292,2.0,6.5,63,0.00,,OVC080,0.00,VWS V14.01,2013-01-09 10:27:00,
2013-01-09 05:32:00,48.7,36.3,30.33,WSW,248,1.6,6.5,62,0.00,,OVC080,0.00,VWS V14.01,2013-01-09 10:32:00,
2013-01-09 05:37:00,48.7,36.3,30.33,WSW,248,1.6,6.5,62,0.00,,OVC080,0.00,VWS V14.01,2013-01-09 10:37:00,
2013-01-09 05:42:00,48.7,36.3,30.33,SW,225,3.8,6.5,62,0.00,,OVC080,0.00,VWS V14.01,2013-01-09 10:42:00,
2013-01-09 05:47:00,48.7,36.3,30.33,SW,225,2.2,6.5,62,0.00,,OVC080,0.00,VWS V14.01,2013-01-09 10:47:00,
2013-01-09 05:52:00,48.7,35.9,30.33,WSW,248,2.0,6.5,61,0.00,,OVC080,0.00,VWS V14.01,2013-01-09 10:52:00,
2013-01-09 05:57:00,48.7,35.9,30.33,SW,225,1.3,6.5,61,0.00,,OVC080,0.00,VWS V14.01,2013-01-09 10:57:00,
2013-01-09 06:02:00,48.9,36.1,30.33,WSW,248,2.9,3.1,61,0.00,,OVC080,0.00,VWS V14.01,2013-01-09 11:02:00,
2013-01-09 06:07:00,48.9,36.1,30.33,West,270,2.5,3.4,61,0.00,,OVC080,0.00,VWS V14.01,2013-01-09 11:07:00,
2013-01-09 06:12:00,48.9,36.1,30.33,WSW,248,2.2,3.4,61,0.00,,OVC080,0.00,VWS V14.01,2013-01-09 11:12:00,
2013-01-09 06:17:00,49.1,36.2,30.33,West,270,2.7,3.4,61,0.00,,OVC085,0.00,VWS V14.01,2013-01-09 11:17:00,
2013-01-09 06:22:00,49.1,36.2,30.33,WSW,248,1.1,3.4,61,0.00,,OVC085,0.00,VWS V14.01,2013-01-09 11:22:00,
2013-01-09 06:27:00,49.3,36.4,30.33,WSW,248,2.7,3.4,61,0.00,,OVC085,0.00,VWS V14.01,2013-01-09 11:27:00,
2013-01-09 06:32:00,49.3,36.4,30.33,West,270,1.6,3.4,61,0.00,,OVC085,0.00,VWS V14.01,2013-01-09 11:32:00,
2013-01-09 06:37:00,49.5,36.6,30.33,WSW,248,2.5,3.4,61,0.00,,OVC085,0.00,VWS V14.01,2013-01-09 11:37:00,
2013-01-09 06:42:00,49.5,36.2,30.36,WSW,248,2.2,3.4,60,0.00,,OVC085,0.00,VWS V14.01,2013-01-09 11:42:00,
2013-01-09 06:47:00,49.5,36.2,30.36,West,270,1.3,3.4,60,0.00,,OVC085,0.00,VWS V14.01,2013-01-09 11:47:00,
2013-01-09 06:52:00,49.5,36.2,30.36,WNW,292,1.6,3.4,60,0.00,,OVC085,0.00,VWS V14.01,2013-01-09 11:52:00,
2013-01-09 06:57:00,49.3,36.0,30.36,NW,315,2.2,3.4,60,0.00,,OVC085,0.00,VWS V14.01,2013-01-09 11:57:00,
2013-01-09 07:02:00,49.3,36.0,30.36,WSW,248,0.0,1.3,60,0.00,,OVC085,0.00,VWS V14.01,2013-01-09 12:02:00,
2013-01-09 07:07:00,49.1,35.8,30.36,WNW,292,0.9,2.2,60,0.00,,OVC085,0.00,VWS V14.01,2013-01-09 12:07:00,
2013-01-09 07:12:00,49.1,35.8,30.39,WNW,292,2.0,2.2,60,0.00,,OVC085,0.00,VWS V14.01,2013-01-09 12:12:00,
2013-01-09 07:17:00,49.1,35.8,30.39,NW,315,2.2,2.2,60,0.00,,OVC055,0.00,VWS V14.01,2013-01-09 12:17:00,
2013-01-09 07:22:00,49.1,35.8,30.39,NNW,338,2.2,3.1,60,0.00,,OVC055,0.00,VWS V14.01,2013-01-09 12:22:00,
2013-01-09 07:27:00,49.1,35.8,30.39,NW,315,2.0,3.1,60,0.00,,OVC055,0.00,VWS V14.01,2013-01-09 12:27:00,
2013-01-09 07:32:00,49.1,35.8,30.39,WNW,292,3.8,3.8,60,0.00,,OVC055,0.00,VWS V14.01,2013-01-09 12:32:00,
2013-01-09 07:37:00,49.1,35.8,30.39,North,0,2.5,4.7,60,0.00,,OVC055,0.00,VWS V14.01,2013-01-09 12:37:00,
2013-01-09 07:42:00,49.3,36.4,30.36,North,0,4.0,8.1,61,0.00,,OVC055,0.00,VWS V14.01,2013-01-09 12:42:00,
2013-01-09 07:47:00,49.3,36.4,30.36,WNW,292,2.7,8.1,61,0.00,,OVC055,0.00,VWS V14.01,2013-01-09 12:47:00,
2013-01-09 07:52:00,49.3,36.8,30.36,NNE,22,2.0,8.1,62,0.00,,OVC055,0.00,VWS V14.01,2013-01-09 12:52:00,
2013-01-09 07:57:00,49.3,36.8,30.39,WSW,248,2.2,8.1,62,0.00,,OVC055,0.00,VWS V14.01,2013-01-09 12:57:00,
2013-01-09 08:02:00,49.3,36.8,30.39,WNW,292,1.6,2.2,62,0.00,,OVC055,0.00,VWS V14.01,2013-01-09 13:02:00,
2013-01-09 08:07:00,49.1,36.7,30.39,South,180,0.0,2.7,62,0.00,,OVC055,0.00,VWS V14.01,2013-01-09 13:07:00,
2013-01-09 08:12:00,49.1,37.1,30.39,SSW,202,0.0,2.7,63,0.00,,OVC055,0.00,VWS V14.01,2013-01-09 13:12:00,
2013-01-09 08:17:00,49.1,37.1,30.39,WSW,248,1.1,2.7,63,0.00,,OVC034,0.00,VWS V14.01,2013-01-09 13:17:00,
2013-01-09 08:22:00,49.1,37.5,30.39,SW,225,0.0,2.7,64,0.00,,OVC034,0.00,VWS V14.01,2013-01-09 13:22:00,
2013-01-09 08:27:00,49.1,37.1,30.41,SSW,202,0.0,2.7,63,0.00,,OVC034,0.00,VWS V14.01,2013-01-09 13:27:00,
2013-01-09 08:32:00,49.1,37.5,30.41,WSW,248,0.0,2.7,64,0.00,,OVC034,0.00,VWS V14.01,2013-01-09 13:32:00,
2013-01-09 08:37:00,49.1,37.5,30.41,WSW,248,1.1,2.7,64,0.00,,OVC034,0.00,VWS V14.01,2013-01-09 13:37:00,
2013-01-09 08:42:00,49.1,37.5,30.41,WSW,248,2.2,2.7,64,0.00,,OVC034,0.00,VWS V14.01,2013-01-09 13:42:00,
2013-01-09 08:47:00,49.1,37.9,30.41,West,270,2.2,2.7,65,0.00,,OVC034,0.00,VWS V14.01,2013-01-09 13:47:00,
2013-01-09 08:52:00,49.1,37.9,30.41,WNW,292,2.0,2.7,65,0.00,,OVC034,0.00,VWS V14.01,2013-01-09 13:52:00,
2013-01-09 08:57:00,49.1,38.2,30.41,WSW,248,1.1,2.9,66,0.00,,OVC034,0.00,VWS V14.01,2013-01-09 13:57:00,
2013-01-09 09:02:00,49.3,38.4,30.41,SSW,202,0.0,2.0,66,0.00,,OVC034,0.00,VWS V14.01,2013-01-09 14:02:00,
2013-01-09 09:07:00,49.3,38.4,30.41,West,270,2.9,4.3,66,0.00,,OVC034,0.00,VWS V14.01,2013-01-09 14:07:00,
2013-01-09 09:12:00,49.3,38.8,30.44,WSW,248,0.0,4.3,67,0.00,,OVC034,0.00,VWS V14.01,2013-01-09 14:12:00,
2013-01-09 09:17:00,49.3,38.8,30.44,SSW,202,0.0,4.3,67,0.00,,OVC055,0.00,VWS V14.01,2013-01-09 14:17:00,
2013-01-09 09:22:00,49.1,39.0,30.44,SW,225,1.6,4.3,68,0.00,,OVC055,0.00,VWS V14.01,2013-01-09 14:22:00,
2013-01-09 09:27:00,49.1,39.0,30.44,SSW,202,2.2,4.3,68,0.00,,OVC055,0.00,VWS V14.01,2013-01-09 14:27:00,
2013-01-09 09:32:00,49.1,39.4,30.44,SSW,202,0.0,4.3,69,0.00,,OVC055,0.00,VWS V14.01,2013-01-09 14:32:00,
2013-01-09 09:37:00,48.9,39.6,30.44,SSW,202,0.0,4.3,70,0.00,,OVC055,0.00,VWS V14.01,2013-01-09 14:37:00,
2013-01-09 09:42:00,48.9,39.6,30.44,South,180,0.0,4.3,70,0.00,,OVC055,0.00,VWS V14.01,2013-01-09 14:42:00,
2013-01-09 09:47:00,48.7,39.8,30.44,SSW,202,1.1,4.3,71,0.00,,OVC055,0.00,VWS V14.01,2013-01-09 14:47:00,
2013-01-09 09:52:00,48.7,39.8,30.44,West,270,0.0,4.3,71,0.00,,OVC055,0.00,VWS V14.01,2013-01-09 14:52:00,
2013-01-09 09:57:00,48.7,40.1,30.44,WNW,292,0.0,4.3,72,0.00,,OVC055,0.00,VWS V14.01,2013-01-09 14:57:00,
2013-01-09 10:02:00,48.7,40.1,30.44,West,270,2.0,2.7,72,0.00,,OVC055,0.00,VWS V14.01,2013-01-09 15:02:00,
2013-01-09 10:07:00,48.7,40.1,30.44,SW,225,0.0,2.7,72,0.00,,OVC055,0.00,VWS V14.01,2013-01-09 15:07:00,
2013-01-09 10:12:00,48.7,40.5,30.41,SW,225,1.6,2.7,73,0.00,,OVC055,0.00,VWS V14.01,2013-01-09 15:12:00,
2013-01-09 10:17:00,48.9,40.7,30.41,WSW,248,0.0,3.1,73,0.00,,-RA,0.00,VWS V14.01,2013-01-09 15:17:00,
2013-01-09 10:22:00,48.9,40.7,30.41,SSW,202,0.0,3.1,73,0.00,,-RA,0.00,VWS V14.01,2013-01-09 15:22:00,
2013-01-09 10:27:00,48.9,40.7,30.44,WNW,292,0.0,3.1,73,0.00,,-RA,0.00,VWS V14.01,2013-01-09 15:27:00,
2013-01-09 10:32:00,48.9,40.7,30.44,SW,225,0.0,3.1,73,0.00,,-RA,0.00,VWS V14.01,2013-01-09 15:32:00,
2013-01-09 10:37:00,49.1,41.2,30.44,SSW,202,0.0,3.1,74,0.00,,-RA,0.00,VWS V14.01,2013-01-09 15:37:00,
2013-01-09 10:42:00,49.1,41.2,30.44,SSW,202,1.3,3.1,74,0.00,,-RA,0.00,VWS V14.01,2013-01-09 15:42:00,
2013-01-09 10:47:00,49.1,41.5,30.44,South,180,2.2,3.4,75,0.00,,-RA,0.00,VWS V14.01,2013-01-09 15:47:00,
2013-01-09 10:52:00,49.3,41.4,30.44,SSW,202,1.1,3.4,74,0.00,,-RA,0.00,VWS V14.01,2013-01-09 15:52:00,
2013-01-09 10:57:00,49.3,41.7,30.44,SSW,202,3.1,3.6,75,0.00,,-RA,0.00,VWS V14.01,2013-01-09 15:57:00,
2013-01-09 11:02:00,49.5,41.9,30.44,SW,225,1.3,5.4,75,0.00,,-RA,0.00,VWS V14.01,2013-01-09 16:02:00,
2013-01-09 11:07:00,49.6,42.0,30.44,SSW,202,2.7,5.4,75,0.00,,-RA,0.00,VWS V14.01,2013-01-09 16:07:00,
2013-01-09 11:12:00,49.8,42.2,30.44,SSW,202,4.3,5.4,75,0.00,,-RA,0.00,VWS V14.01,2013-01-09 16:12:00,
2013-01-09 11:17:00,50.2,42.6,30.44,WSW,248,4.0,5.4,75,0.00,,-RA,0.00,VWS V14.01,2013-01-09 16:17:00,
2013-01-09 11:22:00,50.4,42.4,30.44,South,180,1.1,5.4,74,0.00,,-RA,0.00,VWS V14.01,2013-01-09 16:22:00,
2013-01-09 11:27:00,50.5,42.6,30.44,NW,315,1.3,5.4,74,0.00,,-RA,0.00,VWS V14.01,2013-01-09 16:27:00,
2013-01-09 11:32:00,50.7,42.8,30.44,West,270,2.7,5.4,74,0.00,,-RA,0.00,VWS V14.01,2013-01-09 16:32:00,
2013-01-09 11:37:00,50.7,42.4,30.44,SW,225,2.9,5.4,73,0.00,,-RA,0.00,VWS V14.01,2013-01-09 16:37:00,
2013-01-09 11:42:00,50.7,42.4,30.44,WSW,248,2.5,5.4,73,0.00,,-RA,0.00,VWS V14.01,2013-01-09 16:42:00,
2013-01-09 11:47:00,50.9,42.6,30.44,WSW,248,4.7,5.4,73,0.00,,BKN250,0.00,VWS V14.01,2013-01-09 16:47:00,
2013-01-09 11:52:00,50.9,42.6,30.44,SSW,202,2.7,5.4,73,0.00,,BKN250,0.00,VWS V14.01,2013-01-09 16:52:00,
2013-01-09 11:57:00,50.9,42.6,30.47,West,270,4.3,5.4,73,0.00,,BKN250,0.00,VWS V14.01,2013-01-09 16:57:00,
2013-01-09 12:02:00,50.9,42.2,30.47,South,180,0.0,3.6,72,0.00,,BKN250,0.00,VWS V14.01,2013-01-09 17:02:00,
2013-01-09 12:07:00,50.9,42.2,30.47,SSE,158,1.3,3.6,72,0.00,,BKN250,0.00,VWS V14.01,2013-01-09 17:07:00,
2013-01-09 12:12:00,50.9,42.2,30.44,SW,225,2.2,3.6,72,0.00,,BKN250,0.00,VWS V14.01,2013-01-09 17:12:00,
2013-01-09 12:17:00,50.9,42.2,30.44,South,180,2.5,3.8,72,0.00,,BKN090,0.00,VWS V14.01,2013-01-09 17:17:00,
2013-01-09 12:22:00,50.9,42.2,30.44,WSW,248,2.5,3.8,72,0.00,,BKN090,0.00,VWS V14.01,2013-01-09 17:22:00,
2013-01-09 12:27:00,50.9,42.2,30.44,WSW,248,0.0,3.8,72,0.00,,BKN090,0.00,VWS V14.01,2013-01-09 17:27:00,
2013-01-09 12:32:00,51.1,42.4,30.44,SW,225,2.7,3.8,72,0.00,,BKN090,0.00,VWS V14.01,2013-01-09 17:32:00,
2013-01-09 12:37:00,51.4,42.7,30.44,WNW,292,1.3,3.8,72,0.00,,BKN090,0.00,VWS V14.01,2013-01-09 17:37:00,
2013-01-09 12:42:00,51.6,42.9,30.41,WSW,248,1.6,3.8,72,0.00,,BKN090,0.00,VWS V14.01,2013-01-09 17:42:00,
2013-01-09 12:47:00,52.0,42.9,30.41,WSW,248,2.0,3.8,71,0.00,,BKN090,0.00,VWS V14.01,2013-01-09 17:47:00,
2013-01-09 12:52:00,52.3,43.2,30.41,West,270,3.1,3.8,71,0.00,,BKN090,0.00,VWS V14.01,2013-01-09 17:52:00,
2013-01-09 12:57:00,52.7,43.6,30.41,WSW,248,2.0,3.8,71,0.00,,BKN090,0.00,VWS V14.01,2013-01-09 17:57:00,
2013-01-09 13:02:00,53.2,43.7,30.41,SW,225,2.0,3.4,70,0.00,,BKN090,0.00,VWS V14.01,2013-01-09 18:02:00,
2013-01-09 13:07:00,53.8,43.9,30.41,SSW,202,1.6,3.6,69,0.00,,BKN090,0.00,VWS V14.01,2013-01-09 18:07:00,
2013-01-09 13:12:00,54.1,43.8,30.41,South,180,2.9,4.0,68,0.00,,BKN090,0.00,VWS V14.01,2013-01-09 18:12:00,
2013-01-09 13:17:00,54.7,44.0,30.41,South,180,2.0,4.0,67,0.00,,BKN180,0.00,VWS V14.01,2013-01-09 18:17:00,
2013-01-09 13:22:00,55.0,44.3,30.41,West,270,1.6,4.0,67,0.00,,BKN180,0.00,VWS V14.01,2013-01-09 18:22:00,
2013-01-09 13:27:00,55.2,43.7,30.41,NNW,338,0.9,4.0,65,0.00,,BKN180,0.00,VWS V14.01,2013-01-09 18:27:00,
2013-01-09 13:32:00,55.6,43.2,30.41,North,0,0.0,4.0,63,0.00,,BKN180,0.00,VWS V14.01,2013-01-09 18:32:00,
2013-01-09 13:37:00,55.8,43.0,30.41,WSW,248,2.7,4.0,62,0.00,,BKN180,0.00,VWS V14.01,2013-01-09 18:37:00,
2013-01-09 13:41:00,55.9,42.7,30.41,SW,225,2.7,4.0,61,0.00,,BKN180,0.00,VWS V14.01,2013-01-09 18:41:00,
2013-01-09 13:44:00,56.1,42.9,30.41,SSE,158,1.3,4.0,61,0.00,,BKN180,0.00,VWS V14.01,2013-01-09 18:44:00,
2013-01-09 13:48:00,56.5,43.2,30.41,SSE,158,1.3,4.3,61,0.00,,BKN180,0.00,VWS V14.01,2013-01-09 18:48:00,
2013-01-09 13:49:00,56.5,43.2,30.41,SSW,202,1.6,4.3,61,0.00,,BKN180,0.00,VWS V14.01,2013-01-09 18:49:00,
2013-01-09 13:54:00,57.0,43.3,30.41,SSW,202,2.5,4.3,60,0.00,,BKN180,0.00,VWS V14.01,2013-01-09 18:54:00,
2013-01-09 13:59:00,57.4,42.7,30.41,SSW,202,2.7,2.7,58,0.00,,BKN180,0.00,VWS V14.01,2013-01-09 18:59:00,
2013-01-09 14:04:00,57.6,41.5,30.41,WSW,248,2.7,2.9,55,0.00,,BKN180,0.00,VWS V14.01,2013-01-09 19:04:00,
2013-01-09 14:09:00,57.7,41.2,30.41,SSW,202,3.4,4.9,54,0.00,,BKN180,0.00,VWS V14.01,2013-01-09 19:09:00,
2013-01-09 14:14:00,57.9,41.4,30.41,West,270,3.4,4.9,54,0.00,,BKN180,0.00,VWS V14.01,2013-01-09 19:14:00,
2013-01-09 14:19:00,58.1,40.6,30.41,SW,225,2.9,4.9,52,0.00,,BKN250,0.00,VWS V14.01,2013-01-09 19:19:00,
2013-01-09 14:24:00,58.5,40.9,30.41,SSW,202,2.7,4.9,52,0.00,,BKN250,0.00,VWS V14.01,2013-01-09 19:24:00,
2013-01-09 14:29:00,58.6,40.6,30.41,WNW,292,1.6,4.9,51,0.00,,BKN250,0.00,VWS V14.01,2013-01-09 19:29:00,
2013-01-09 14:34:00,58.6,40.1,30.41,SW,225,2.9,4.9,50,0.00,,BKN250,0.00,VWS V14.01,2013-01-09 19:34:00,
2013-01-09 14:39:00,58.6,39.5,30.41,WSW,248,2.0,4.9,49,0.00,,BKN250,0.00,VWS V14.01,2013-01-09 19:39:00,
2013-01-09 14:44:00,59.0,39.4,30.41,WSW,248,2.9,4.9,48,0.00,,BKN250,0.00,VWS V14.01,2013-01-09 19:44:00,
2013-01-09 14:49:00,59.2,39.0,30.41,NW,315,1.1,4.9,47,0.00,,BKN250,0.00,VWS V14.01,2013-01-09 19:49:00,
2013-01-09 14:54:00,59.0,38.3,30.41,SSE,158,2.2,4.9,46,0.00,,BKN250,0.00,VWS V14.01,2013-01-09 19:54:00,
2013-01-09 14:59:00,58.8,38.7,30.41,South,180,3.6,3.6,47,0.00,,BKN250,0.00,VWS V14.01,2013-01-09 19:59:00,
2013-01-09 15:04:00,59.0,38.8,30.41,WNW,292,1.1,3.6,47,0.00,,BKN250,0.00,VWS V14.01,2013-01-09 20:04:00,
2013-01-09 15:09:00,59.0,38.8,30.41,WSW,248,2.7,3.6,47,0.00,,BKN250,0.00,VWS V14.01,2013-01-09 20:09:00,
2013-01-09 15:14:00,59.2,38.4,30.41,WSW,248,2.0,3.6,46,0.00,,BKN250,0.00,VWS V14.01,2013-01-09 20:14:00,
2013-01-09 15:19:00,59.4,38.6,30.41,West,270,0.0,3.6,46,0.00,,CLR,0.00,VWS V14.01,2013-01-09 20:19:00,
2013-01-09 15:24:00,59.4,38.6,30.41,WNW,292,0.0,3.6,46,0.00,,CLR,0.00,VWS V14.01,2013-01-09 20:24:00,
2013-01-09 15:29:00,59.7,38.9,30.44,WSW,248,1.3,3.6,46,0.00,,CLR,0.00,VWS V14.01,2013-01-09 20:29:00,
2013-01-09 15:34:00,59.9,38.5,30.44,WSW,248,2.0,3.6,45,0.00,,CLR,0.00,VWS V14.01,2013-01-09 20:34:00,
2013-01-09 15:39:00,59.9,38.5,30.44,SSW,202,1.6,3.6,45,0.00,,CLR,0.00,VWS V14.01,2013-01-09 20:39:00,
2013-01-09 15:44:00,59.9,36.2,30.44,NNW,338,2.9,6.3,41,0.00,,CLR,0.00,VWS V14.01,2013-01-09 20:44:00,
2013-01-09 15:49:00,59.9,36.8,30.44,East,90,3.8,6.3,42,0.00,,CLR,0.00,VWS V14.01,2013-01-09 20:49:00,
2013-01-09 15:54:00,60.1,36.9,30.44,NW,315,2.2,6.3,42,0.00,,CLR,0.00,VWS V14.01,2013-01-09 20:54:00,
2013-01-09 15:59:00,60.1,35.1,30.44,NW,315,2.7,3.6,39,0.00,,CLR,0.00,VWS V14.01,2013-01-09 20:59:00,
2013-01-09 16:04:00,60.1,34.4,30.44,WNW,292,2.9,5.4,38,0.00,,CLR,0.00,VWS V14.01,2013-01-09 21:04:00,
2013-01-09 16:09:00,60.1,33.8,30.44,NE,45,3.1,5.6,37,0.00,,CLR,0.00,VWS V14.01,2013-01-09 21:09:00,
2013-01-09 16:14:00,59.9,32.9,30.44,NNW,338,3.8,5.6,36,0.00,,CLR,0.00,VWS V14.01,2013-01-09 21:14:00,
2013-01-09 16:19:00,59.7,33.4,30.44,North,0,1.3,5.6,37,0.00,,CLR,0.00,VWS V14.01,2013-01-09 21:19:00,
2013-01-09 16:30:00,59.5,32.6,30.44,NNW,338,3.6,5.6,36,0.00,,CLR,0.00,VWS V14.01,2013-01-09 21:30:00,
2013-01-09 16:35:00,59.4,32.4,30.44,NE,45,2.2,5.6,36,0.00,,CLR,0.00,VWS V14.01,2013-01-09 21:35:00,
2013-01-09 16:40:00,59.2,32.3,30.44,NNW,338,3.1,5.6,36,0.00,,CLR,0.00,VWS V14.01,2013-01-09 21:40:00,
2013-01-09 16:45:00,59.0,32.1,30.44,NNE,22,2.7,5.6,36,0.00,,CLR,0.00,VWS V14.01,2013-01-09 21:45:00,
2013-01-09 16:50:00,58.8,31.2,30.44,NNW,338,5.4,5.6,35,0.00,,CLR,0.00,VWS V14.01,2013-01-09 21:50:00,
2013-01-09 16:55:00,58.5,30.9,30.44,NNE,22,4.0,5.8,35,0.00,,CLR,0.00,VWS V14.01,2013-01-09 21:55:00,
2013-01-09 17:00:00,58.3,30.8,30.44,NNW,338,3.8,4.3,35,0.00,,CLR,0.00,VWS V14.01,2013-01-09 22:00:00,
2013-01-09 17:05:00,57.9,30.5,30.44,NNE,22,3.6,4.9,35,0.00,,CLR,0.00,VWS V14.01,2013-01-09 22:05:00,
2013-01-09 17:10:00,57.7,30.3,30.44,NNW,338,4.3,6.0,35,0.00,,CLR,0.00,VWS V14.01,2013-01-09 22:10:00,
2013-01-09 17:15:00,57.4,30.0,30.44,North,0,2.7,6.0,35,0.00,,CLR,0.00,VWS V14.01,2013-01-09 22:15:00,
2013-01-09 17:20:00,57.2,29.8,30.44,NNW,338,3.4,6.0,35,0.00,,CLR,0.00,VWS V14.01,2013-01-09 22:20:00,
2013-01-09 17:25:00,56.8,30.2,30.44,NNW,338,2.5,6.0,36,0.00,,CLR,0.00,VWS V14.01,2013-01-09 22:25:00,
2013-01-09 17:30:00,56.5,29.9,30.44,NE,45,1.6,6.0,36,0.00,,CLR,0.00,VWS V14.01,2013-01-09 22:30:00,
2013-01-09 17:35:00,56.1,29.5,30.44,NNW,338,1.1,6.0,36,0.00,,CLR,0.00,VWS V14.01,2013-01-09 22:35:00,
2013-01-09 17:40:00,55.9,30.1,30.44,North,0,1.3,6.0,37,0.00,,CLR,0.00,VWS V14.01,2013-01-09 22:40:00,
2013-01-09 17:45:00,55.4,29.6,30.44,North,0,2.7,6.0,37,0.00,,CLR,0.00,VWS V14.01,2013-01-09 22:45:00,
2013-01-09 17:50:00,55.2,30.1,30.44,NNE,22,1.6,6.0,38,0.00,,CLR,0.00,VWS V14.01,2013-01-09 22:50:00,
2013-01-09 17:55:00,54.9,30.4,30.44,North,0,2.2,6.0,39,0.00,,CLR,0.00,VWS V14.01,2013-01-09 22:55:00,
2013-01-09 18:00:00,54.5,30.7,30.47,NNW,338,1.3,2.2,40,0.00,,CLR,0.00,VWS V14.01,2013-01-09 23:00:00,
2013-01-09 18:05:00,54.3,30.5,30.47,NE,45,0.0,2.7,40,0.00,,CLR,0.00,VWS V14.01,2013-01-09 23:05:00,
2013-01-09 18:10:00,54.1,31.0,30.47,NE,45,0.9,3.1,41,0.00,,CLR,0.00,VWS V14.01,2013-01-09 23:10:00,
2013-01-09 18:15:00,53.8,30.6,30.47,NNE,22,1.1,3.1,41,0.00,,CLR,0.00,VWS V14.01,2013-01-09 23:15:00,
2013-01-09 18:20:00,53.8,31.2,30.47,NNE,22,0.0,3.1,42,0.00,,CLR,0.00,VWS V14.01,2013-01-09 23:20:00,
2013-01-09 18:25:00,53.1,31.2,30.47,NNE,22,0.0,3.1,43,0.00,,CLR,0.00,VWS V14.01,2013-01-09 23:25:00,
2013-01-09 18:30:00,53.1,31.7,30.47,NNE,22,0.0,3.1,44,0.00,,CLR,0.00,VWS V14.01,2013-01-09 23:30:00,
2013-01-09 18:35:00,52.3,31.6,30.47,NNE,22,0.0,3.1,45,0.00,,CLR,0.00,VWS V14.01,2013-01-09 23:35:00,
2013-01-09 18:40:00,52.2,31.5,30.47,NNE,22,0.0,3.1,45,0.00,,CLR,0.00,VWS V14.01,2013-01-09 23:40:00,
2013-01-09 18:45:00,51.6,31.5,30.50,NNE,22,0.0,3.1,46,0.00,,CLR,0.00,VWS V14.01,2013-01-09 23:45:00,
2013-01-09 18:50:00,51.6,31.5,30.50,NNE,22,0.0,3.1,46,0.00,,CLR,0.00,VWS V14.01,2013-01-09 23:50:00,
2013-01-09 18:55:00,51.1,31.6,30.50,NNE,22,0.0,3.1,47,0.00,,CLR,0.00,VWS V14.01,2013-01-09 23:55:00,
2013-01-09 19:00:00,50.9,31.4,30.50,North,0,0.0,0.9,47,0.00,,CLR,0.00,VWS V14.01,2013-01-10 00:00:00,
2013-01-09 19:05:00,50.5,31.6,30.50,North,0,0.0,0.9,48,0.00,,CLR,0.00,VWS V14.01,2013-01-10 00:05:00,
2013-01-09 19:10:00,50.5,31.6,30.50,North,0,0.0,0.9,48,0.00,,CLR,0.00,VWS V14.01,2013-01-10 00:10:00,
2013-01-09 19:15:00,50.2,31.8,30.50,North,0,0.0,0.9,49,0.00,,CLR,0.00,VWS V14.01,2013-01-10 00:15:00,
2013-01-09 19:20:00,50.2,31.8,30.50,NNW,338,0.0,1.3,49,0.00,,CLR,0.00,VWS V14.01,2013-01-10 00:20:00,
2013-01-09 19:25:00,49.6,32.3,30.50,NNW,338,0.0,1.3,51,0.00,,CLR,0.00,VWS V14.01,2013-01-10 00:25:00,
2013-01-09 19:30:00,49.6,31.8,30.47,NNW,338,0.0,1.3,50,0.00,,CLR,0.00,VWS V14.01,2013-01-10 00:30:00,
2013-01-09 19:35:00,49.5,32.6,30.47,NNW,338,0.0,1.3,52,0.00,,CLR,0.00,VWS V14.01,2013-01-10 00:35:00,
2013-01-09 19:40:00,49.3,32.4,30.47,NNW,338,0.0,1.3,52,0.00,,CLR,0.00,VWS V14.01,2013-01-10 00:40:00,
2013-01-09 19:45:00,49.1,32.2,30.50,NNW,338,0.0,1.3,52,0.00,,CLR,0.00,VWS V14.01,2013-01-10 00:45:00,
2013-01-09 19:50:00,48.9,32.6,30.50,NNW,338,0.0,1.3,53,0.00,,CLR,0.00,VWS V14.01,2013-01-10 00:50:00,
2013-01-09 19:55:00,48.7,32.4,30.50,NNW,338,0.0,1.3,53,0.00,,CLR,0.00,VWS V14.01,2013-01-10 00:55:00,
2013-01-09 20:00:00,48.7,32.4,30.50,NNW,338,0.0,0.0,53,0.00,,CLR,0.00,VWS V14.01,2013-01-10 01:00:00,
2013-01-09 20:05:00,48.6,32.7,30.50,NNW,338,0.0,0.0,54,0.00,,CLR,0.00,VWS V14.01,2013-01-10 01:05:00,
2013-01-09 20:10:00,48.4,33.0,30.50,NNW,338,0.0,0.0,55,0.00,,CLR,0.00,VWS V14.01,2013-01-10 01:10:00,
2013-01-09 20:15:00,48.2,32.8,30.50,NNW,338,0.0,0.0,55,0.00,,CLR,0.00,VWS V14.01,2013-01-10 01:15:00,
2013-01-09 20:20:00,47.8,32.5,30.50,NNW,338,0.0,0.0,55,0.00,,CLR,0.00,VWS V14.01,2013-01-10 01:20:00,
2013-01-09 20:25:00,47.7,32.8,30.50,NNW,338,0.0,0.0,56,0.00,,CLR,0.00,VWS V14.01,2013-01-10 01:25:00,
2013-01-09 20:30:00,47.7,32.8,30.53,NNW,338,0.0,0.0,56,0.00,,CLR,0.00,VWS V14.01,2013-01-10 01:30:00,
2013-01-09 20:35:00,47.3,32.8,30.53,NNW,338,0.0,0.0,57,0.00,,CLR,0.00,VWS V14.01,2013-01-10 01:35:00,
2013-01-09 20:40:00,47.3,33.3,30.53,NNW,338,0.0,0.0,58,0.00,,CLR,0.00,VWS V14.01,2013-01-10 01:40:00,
2013-01-09 20:45:00,47.1,33.1,30.53,NNW,338,0.0,0.0,58,0.00,,CLR,0.00,VWS V14.01,2013-01-10 01:45:00,
2013-01-09 20:50:00,47.1,33.1,30.53,NNW,338,0.0,0.0,58,0.00,,CLR,0.00,VWS V14.01,2013-01-10 01:50:00,
2013-01-09 20:55:00,46.9,33.4,30.53,SSW,202,0.0,0.0,59,0.00,,CLR,0.00,VWS V14.01,2013-01-10 01:55:00,
2013-01-09 21:00:00,46.8,33.6,30.53,SSW,202,0.0,0.0,60,0.00,,CLR,0.00,VWS V14.01,2013-01-10 02:00:00,
2013-01-09 21:05:00,46.4,32.9,30.53,SSW,202,0.0,0.0,59,0.00,,CLR,0.00,VWS V14.01,2013-01-10 02:05:00,
2013-01-09 21:10:00,46.4,32.9,30.53,SSW,202,0.0,0.0,59,0.00,,CLR,0.00,VWS V14.01,2013-01-10 02:10:00,
2013-01-09 21:15:00,46.2,33.5,30.53,SSW,202,0.0,0.0,61,0.00,,CLR,0.00,VWS V14.01,2013-01-10 02:15:00,
2013-01-09 21:20:00,46.2,33.5,30.53,SSW,202,0.0,0.0,61,0.00,,CLR,0.00,VWS V14.01,2013-01-10 02:20:00,
2013-01-09 21:25:00,46.0,33.8,30.53,SSW,202,0.0,0.0,62,0.00,,CLR,0.00,VWS V14.01,2013-01-10 02:25:00,
2013-01-09 21:30:00,45.9,33.6,30.53,SSW,202,0.0,0.0,62,0.00,,CLR,0.00,VWS V14.01,2013-01-10 02:30:00,
2013-01-09 21:35:00,45.9,34.0,30.53,SSW,202,0.0,0.0,63,0.00,,CLR,0.00,VWS V14.01,2013-01-10 02:35:00,
2013-01-09 21:40:00,45.7,34.2,30.53,SSW,202,0.0,0.0,64,0.00,,CLR,0.00,VWS V14.01,2013-01-10 02:40:00,
2013-01-09 21:45:00,45.5,34.0,30.53,SSW,202,0.0,0.0,64,0.00,,CLR,0.00,VWS V14.01,2013-01-10 02:45:00,
2013-01-09 21:50:00,45.5,34.0,30.53,SSW,202,0.0,0.0,64,0.00,,CLR,0.00,VWS V14.01,2013-01-10 02:50:00,
2013-01-09 21:55:00,45.3,33.9,30.53,SSW,202,0.0,0.0,64,0.00,,CLR,0.00,VWS V14.01,2013-01-10 02:55:00,
2013-01-09 22:00:00,45.1,34.1,30.53,NNW,338,0.0,0.0,65,0.00,,CLR,0.00,VWS V14.01,2013-01-10 03:00:00,
2013-01-09 22:05:00,45.1,33.7,30.53,NE,45,0.0,0.0,64,0.00,,CLR,0.00,VWS V14.01,2013-01-10 03:05:00,
2013-01-09 22:10:00,45.1,34.1,30.53,NNE,22,0.0,2.9,65,0.00,,CLR,0.00,VWS V14.01,2013-01-10 03:10:00,
2013-01-09 22:15:00,45.1,34.1,30.53,NNE,22,0.0,2.9,65,0.00,,CLR,0.00,VWS V14.01,2013-01-10 03:15:00,
2013-01-09 22:19:00,45.1,34.5,30.53,NNE,22,0.0,2.9,66,0.00,,CLR,0.00,VWS V14.01,2013-01-10 03:19:00,
2013-01-09 22:24:00,45.1,34.5,30.53,NNE,22,0.0,2.9,66,0.00,,CLR,0.00,VWS V14.01,2013-01-10 03:24:00,
2013-01-09 22:29:00,45.0,34.7,30.53,NNE,22,0.0,2.9,67,0.00,,CLR,0.00,VWS V14.01,2013-01-10 03:29:00,
2013-01-09 22:34:00,45.0,34.7,30.53,ENE,68,0.0,2.9,67,0.00,,CLR,0.00,VWS V14.01,2013-01-10 03:34:00,
2013-01-09 22:39:00,44.8,34.5,30.53,ENE,68,0.0,2.9,67,0.00,,CLR,0.00,VWS V14.01,2013-01-10 03:39:00,
2013-01-09 22:45:00,44.8,34.5,30.53,ENE,68,0.0,2.9,67,0.00,,CLR,0.00,VWS V14.01,2013-01-10 03:45:00,
2013-01-09 22:50:00,44.8,34.5,30.53,ENE,68,0.0,2.9,67,0.00,,CLR,0.00,VWS V14.01,2013-01-10 03:50:00,
2013-01-09 22:55:00,44.6,34.7,30.53,ENE,68,0.0,2.9,68,0.00,,CLR,0.00,VWS V14.01,2013-01-10 03:55:00,
2013-01-09 23:00:00,44.6,34.7,30.53,ENE,68,0.0,0.0,68,0.00,,CLR,0.00,VWS V14.01,2013-01-10 04:00:00,
2013-01-09 23:05:00,44.4,34.5,30.53,ENE,68,0.0,0.0,68,0.00,,CLR,0.00,VWS V14.01,2013-01-10 04:05:00,
2013-01-09 23:10:00,44.4,34.5,30.53,ENE,68,0.0,0.0,68,0.00,,CLR,0.00,VWS V14.01,2013-01-10 04:10:00,
2013-01-09 23:15:00,44.2,34.7,30.56,ENE,68,0.0,0.0,69,0.00,,CLR,0.00,VWS V14.01,2013-01-10 04:15:00,
2013-01-09 23:20:00,44.2,34.7,30.56,ENE,68,0.0,0.0,69,0.00,,CLR,0.00,VWS V14.01,2013-01-10 04:20:00,
2013-01-09 23:25:00,44.1,34.6,30.56,ENE,68,0.0,0.0,69,0.00,,CLR,0.00,VWS V14.01,2013-01-10 04:25:00,
2013-01-09 23:30:00,44.1,34.6,30.56,ENE,68,0.0,0.0,69,0.00,,CLR,0.00,VWS V14.01,2013-01-10 04:30:00,
2013-01-09 23:35:00,44.1,34.6,30.56,ENE,68,0.0,0.0,69,0.00,,CLR,0.00,VWS V14.01,2013-01-10 04:35:00,
2013-01-09 23:40:00,43.9,34.7,30.56,ENE,68,0.0,0.0,70,0.00,,CLR,0.00,VWS V14.01,2013-01-10 04:40:00,
2013-01-09 23:45:00,43.9,34.7,30.56,NNE,22,0.0,0.0,70,0.00,,CLR,0.00,VWS V14.01,2013-01-10 04:45:00,
2013-01-09 23:50:00,44.1,34.9,30.56,NNW,338,2.7,3.1,70,0.00,,CLR,0.00,VWS V14.01,2013-01-10 04:50:00,
2013-01-09 23:55:00,44.2,35.1,30.56,North,0,2.0,3.1,70,0.00,,CLR,0.00,VWS V14.01,2013-01-10 04:55:00,